When you browse on this site, cookies collect data to enhance your experience and personalize the content and advertising you see.
Visit our Privacy Policy to learn more. By continuing to use the site, you agree to this use of cookies and data.
  • In Deutschland
  • Länderverzeichnis
  • Für 7 Tage
  • Wassertemperatur
  • Satellitenkarten
  • Wetterkarte
  • Widgets
  • user-avatar
    Anmelden

    Stündliche Wetter Port Said

    Heute, 16 Januar, Mittwoch

    Zeit Temperatur Niederschläge Wind Luftdruck Luftfeuchtigkeit
    00:00 +12°C° 0 mm 12 m/S 759 mmHg 24%
    01:00 +12°C° 0 mm 12 m/S 758 mmHg 24%
    02:00 +12°C° 0 mm 12 m/S 757 mmHg 24%
    03:00 +12°C° 0 mm 12 m/S 757 mmHg 27%
    04:00 +11°C° 0 mm 11 m/S 757 mmHg 30%
    05:00 +11°C° 0 mm 11 m/S 757 mmHg 33%
    06:00 +11°C° 0 mm 11 m/S 757 mmHg 37%
    07:00 +11°C° 0 mm 11 m/S 758 mmHg 42%
    08:00 +10°C° 0 mm 12 m/S 757 mmHg 45%
    09:00 +12°C° 0.1 mm 12 m/S 757 mmHg 43%
    10:00 +14°C° 0.1 mm 13 m/S 758 mmHg 41%
    11:00 +15°C° 0.1 mm 14 m/S 758 mmHg 39%
    12:00 +14°C° 0.3 mm 14 m/S 758 mmHg 40%
    13:00 +13°C° 0.3 mm 15 m/S 758 mmHg 41%
    14:00 +13°C° 0 mm 15 m/S 758 mmHg 40%
    15:00 +11°C° 0.3 mm 15 m/S 758 mmHg 44%
    16:00 +10°C° 0.3 mm 14 m/S 759 mmHg 49%
    17:00 +9°C° 0.3 mm 13 m/S 759 mmHg 54%
    18:00 +9°C° 0.4 mm 13 m/S 760 mmHg 55%
    19:00 +8°C° 0.4 mm 13 m/S 761 mmHg 56%
    20:00 +8°C° 0.4 mm 13 m/S 761 mmHg 57%
    21:00 +8°C° 0 mm 12 m/S 762 mmHg 59%
    22:00 +8°C° 0 mm 11 m/S 762 mmHg 62%
    23:00 +7°C° 0 mm 10 m/S 763 mmHg 64%

    Morgen, 17 Januar, Donnerstag

    Zeit Temperatur Niederschläge Wind Luftdruck Luftfeuchtigkeit
    00:00 +7°C° 0 mm 10 m/S 763 mmHg 66%
    01:00 +7°C° 0 mm 9 m/S 764 mmHg 67%
    02:00 +7°C° 0 mm 9 m/S 764 mmHg 69%
    03:00 +7°C° 0 mm 9 m/S 764 mmHg 70%
    04:00 +7°C° 0 mm 8 m/S 764 mmHg 72%
    05:00 +7°C° 0 mm 8 m/S 765 mmHg 73%
    06:00 +7°C° 0 mm 8 m/S 765 mmHg 72%
    07:00 +9°C° 0 mm 7 m/S 765 mmHg 71%
    08:00 +9°C° 0 mm 7 m/S 766 mmHg 71%
    09:00 +10°C° 0 mm 7 m/S 766 mmHg 67%
    10:00 +12°C° 0 mm 7 m/S 766 mmHg 64%
    11:00 +14°C° 0 mm 7 m/S 767 mmHg 60%
    12:00 +14°C° 0.1 mm 7 m/S 766 mmHg 60%
    13:00 +15°C° 0.1 mm 7 m/S 766 mmHg 59%
    14:00 +15°C° 0.1 mm 7 m/S 766 mmHg 59%
    15:00 +15°C° 0 mm 6 m/S 766 mmHg 60%
    16:00 +14°C° 0 mm 6 m/S 766 mmHg 61%
    17:00 +14°C° 0 mm 6 m/S 766 mmHg 63%
    18:00 +13°C° 0 mm 5 m/S 766 mmHg 66%
    19:00 +13°C° 0 mm 5 m/S 767 mmHg 70%
    20:00 +12°C° 0 mm 5 m/S 767 mmHg 74%
    21:00 +12°C° 0 mm 5 m/S 767 mmHg 74%
    22:00 +10°C° 0 mm 5 m/S 767 mmHg 75%
    23:00 +11°C° 0 mm 4 m/S 767 mmHg 75%

    übermorgen, 18 Januar, Freitag

    Zeit Temperatur Niederschläge Wind Luftdruck Luftfeuchtigkeit
    00:00 +11°C° 0 mm 4 m/S 767 mmHg 76%
    01:00 +10°C° 0 mm 4 m/S 767 mmHg 77%
    02:00 +10°C° 0 mm 4 m/S 767 mmHg 78%
    03:00 +10°C° 0 mm 4 m/S 767 mmHg 78%
    04:00 +8°C° 0 mm 4 m/S 766 mmHg 79%
    05:00 +8°C° 0 mm 4 m/S 766 mmHg 79%
    06:00 +8°C° 0 mm 4 m/S 766 mmHg 77%
    07:00 +10°C° 0 mm 4 m/S 767 mmHg 75%
    08:00 +10°C° 0 mm 4 m/S 767 mmHg 74%
    09:00 +12°C° 0 mm 3 m/S 767 mmHg 66%
    10:00 +14°C° 0 mm 3 m/S 767 mmHg 57%
    11:00 +17°C° 0 mm 2 m/S 767 mmHg 49%
    12:00 +17°C° 0 mm 2 m/S 767 mmHg 47%
    13:00 +18°C° 0 mm 2 m/S 766 mmHg 45%
    14:00 +18°C° 0 mm 2 m/S 766 mmHg 42%
    15:00 +18°C° 0 mm 3 m/S 766 mmHg 45%
    16:00 +17°C° 0 mm 3 m/S 766 mmHg 48%
    17:00 +17°C° 0 mm 4 m/S 766 mmHg 51%
    18:00 +16°C° 0 mm 3 m/S 766 mmHg 55%
    19:00 +16°C° 0 mm 3 m/S 767 mmHg 59%
    20:00 +14°C° 0 mm 3 m/S 767 mmHg 62%
    21:00 +15°C° 0 mm 2 m/S 767 mmHg 64%
    22:00 +14°C° 0 mm 2 m/S 767 mmHg 65%
    23:00 +14°C° 0 mm 2 m/S 767 mmHg 67%

    19 Januar, Samstag

    Zeit Temperatur Niederschläge Wind Luftdruck Luftfeuchtigkeit
    00:00 +13°C° 0 mm 2 m/S 767 mmHg 69%
    01:00 +13°C° 0 mm 1 m/S 767 mmHg 72%
    02:00 +12°C° 0 mm 1 m/S 767 mmHg 74%
    03:00 +12°C° 0 mm 1 m/S 767 mmHg 75%
    04:00 +12°C° 0 mm 2 m/S 766 mmHg 77%
    05:00 +12°C° 0 mm 2 m/S 766 mmHg 78%
    06:00 +12°C° 0 mm 2 m/S 766 mmHg 75%
    07:00 +13°C° 0 mm 2 m/S 767 mmHg 73%
    08:00 +14°C° 0 mm 2 m/S 767 mmHg 70%
    09:00 +15°C° 0 mm 2 m/S 767 mmHg 65%
    10:00 +16°C° 0 mm 2 m/S 767 mmHg 60%
    11:00 +18°C° 0 mm 3 m/S 767 mmHg 55%
    12:00 +18°C° 0 mm 3 m/S 766 mmHg 53%
    13:00 +18°C° 0 mm 4 m/S 766 mmHg 51%
    14:00 +19°C° 0 mm 4 m/S 765 mmHg 49%
    15:00 +18°C° 0 mm 4 m/S 765 mmHg 50%
    16:00 +18°C° 0 mm 4 m/S 765 mmHg 51%
    17:00 +17°C° 0 mm 4 m/S 765 mmHg 53%
    18:00 +15°C° 0 mm 4 m/S 765 mmHg 55%
    19:00 +16°C° 0 mm 3 m/S 766 mmHg 57%
    20:00 +14°C° 0 mm 3 m/S 766 mmHg 60%
    21:00 +14°C° 0 mm 3 m/S 766 mmHg 61%
    22:00 +13°C° 0 mm 3 m/S 766 mmHg 63%
    23:00 +13°C° 0 mm 3 m/S 766 mmHg 64%

    20 Januar, Sonntag

    Zeit Temperatur Niederschläge Wind Luftdruck Luftfeuchtigkeit
    00:00 +13°C° 0 mm 3 m/S 766 mmHg 66%
    01:00 +13°C° 0 mm 3 m/S 766 mmHg 67%
    02:00 +12°C° 0 mm 3 m/S 766 mmHg 69%
    03:00 +12°C° 0 mm 3 m/S 765 mmHg 70%
    04:00 +12°C° 0 mm 3 m/S 765 mmHg 70%
    05:00 +12°C° 0 mm 3 m/S 765 mmHg 71%
    06:00 +12°C° 0 mm 3 m/S 766 mmHg 69%
    07:00 +13°C° 0 mm 3 m/S 766 mmHg 68%
    08:00 +13°C° 0 mm 3 m/S 766 mmHg 66%
    09:00 +16°C° 0 mm 3 m/S 766 mmHg 60%
    10:00 +17°C° 0 mm 3 m/S 766 mmHg 55%
    11:00 +18°C° 0 mm 3 m/S 766 mmHg 49%
    12:00 +18°C° 0 mm 3 m/S 765 mmHg 47%
    13:00 +19°C° 0 mm 3 m/S 765 mmHg 45%
    14:00 +19°C° 0 mm 3 m/S 764 mmHg 44%
    15:00 +19°C° 0 mm 4 m/S 764 mmHg 46%
    16:00 +18°C° 0 mm 4 m/S 764 mmHg 49%
    17:00 +18°C° 0 mm 4 m/S 764 mmHg 52%
    18:00 +17°C° 0 mm 4 m/S 764 mmHg 54%
    19:00 +17°C° 0 mm 4 m/S 765 mmHg 56%
    20:00 +17°C° 0 mm 4 m/S 765 mmHg 58%
    21:00 +17°C° 0 mm 3 m/S 765 mmHg 60%
    22:00 +16°C° 0 mm 3 m/S 765 mmHg 61%
    23:00 +16°C° 0 mm 2 m/S 765 mmHg 63%

    21 Januar, Montag

    Zeit Temperatur Niederschläge Wind Luftdruck Luftfeuchtigkeit
    00:00 +16°C° 0 mm 2 m/S 765 mmHg 63%
    01:00 +16°C° 0 mm 2 m/S 765 mmHg 64%
    02:00 +16°C° 0 mm 2 m/S 765 mmHg 64%
    03:00 +16°C° 0 mm 2 m/S 765 mmHg 66%
    04:00 +15°C° 0 mm 2 m/S 765 mmHg 68%
    05:00 +15°C° 0 mm 2 m/S 765 mmHg 69%
    06:00 +15°C° 0 mm 1 m/S 765 mmHg 68%
    07:00 +16°C° 0 mm 1 m/S 765 mmHg 68%
    08:00 +16°C° 0 mm 1 m/S 766 mmHg 67%
    09:00 +18°C° 0 mm 1 m/S 766 mmHg 62%
    10:00 +18°C° 0 mm 2 m/S 766 mmHg 56%
    11:00 +19°C° 0 mm 2 m/S 766 mmHg 51%
    12:00 +19°C° 0 mm 3 m/S 765 mmHg 49%
    13:00 +20°C° 0 mm 3 m/S 765 mmHg 47%
    14:00 +20°C° 0 mm 4 m/S 764 mmHg 45%
    15:00 +20°C° 0 mm 4 m/S 765 mmHg 49%
    16:00 +19°C° 0 mm 4 m/S 765 mmHg 52%
    17:00 +18°C° 0 mm 4 m/S 765 mmHg 55%
    18:00 +18°C° 0 mm 4 m/S 765 mmHg 57%
    19:00 +17°C° 0 mm 4 m/S 765 mmHg 60%
    20:00 +15°C° 0 mm 4 m/S 766 mmHg 63%
    21:00 +15°C° 0 mm 4 m/S 766 mmHg 64%
    22:00 +15°C° 0 mm 4 m/S 766 mmHg 66%
    23:00 +14°C° 0 mm 4 m/S 766 mmHg 67%
    Mehr zeigen